Regional Weather Roundup
Issued by NWS

Home | Current Version | Previous Version | Graphics & Text | Print | Product List | Glossary Off
Versions: 1 2 3 4 5 6 7 8 9 10 11 12 13 14 15 16 17 18 19 20 21 22 23 24 25 26 27

000
ASUS43 KDMX 231307
RWRIA

WEATHER ROUNDUP FOR IOWA
NATIONAL WEATHER SERVICE DES MOINES IA
800 AM CDT WED APR 23 2014

NOTE: "FAIR" INDICATES FEW OR NO CLOUDS BELOW 12,000 FEET WITH NO
SIGNIFICANT WEATHER AND/OR OBSTRUCTIONS TO VISIBILITY.

* - THESE STATIONS ARE NOT NWS STATIONS...THUS NOT UNDER NWS
QUALITY CONTROL.  THEY ALSO DO NOT REPORT WEATHER SUCH
AS PRECIPITATION OR FOG.

IAZ001>003-012>014-020>022-031>034-043>046-231400-
   NORTHWEST IOWA

CITY           SKY/WX    TMP DP  RH WIND       PRES   REMARKS
CARROLL *      CLOUDY    50  32  50 SE22      29.99F
CHEROKEE *     CLOUDY    47  38  70 SE18G25   29.94S
DENISON *      CLOUDY    50  32  50 SE17G23   29.95S
LE MARS *      CLOUDY    48  39  71 SE9G16    29.93R
ORANGE CITY *  LGT RAIN  48  36  61 SE14G23   29.94R
SHELDON *      CLOUDY    46  37  71 SE14G22   29.95R
SIOUX CITY     LGT RAIN  49  39  68 SE20      29.89R
SPENCER        CLOUDY    48  31  51 SE18G28   29.98F
STORM LAKE *   CLOUDY    48  32  53 SE24G31   29.97S
$$

IAZ055>058-069>071-079>083-090>094-231400-
   SOUTHWEST IOWA

CITY           SKY/WX    TMP DP  RH WIND       PRES   REMARKS
ATLANTIC *     CLOUDY    52  30  43 SE15G21   29.99F
AUDUBON *      CLOUDY    52  27  37 SE15G26   30.00F
CLARINDA *     CLOUDY    54  34  47 SE10      30.01R
COUNCIL BLFS * DRIZZLE   50  39  66 SE14G23   29.95S
CRESTON *      CLOUDY    50  30  46 SE17      30.03R
HARLAN  *      CLOUDY    52  34  50 SE12      30.02R
LAMONI         CLOUDY    49  34  56 SE6       30.04R
RED OAK *      CLOUDY    54  34  47 SE15G21   29.99R
SHENANDOAH *   CLOUDY    54  36  50 SE14      29.99R
$$

IAZ047>049-059>061-072>074-084-231400-
   CENTRAL IOWA

CITY           SKY/WX    TMP DP  RH WIND       PRES   REMARKS
AMES           CLOUDY    48  29  47 SE13      30.07R
ANKENY *       CLOUDY    48  32  53 SE10G16   30.08R
CHARITON *     PTSUNNY   50  32  50 SE14      30.07R
DES MOINES     CLOUDY    50  31  48 SE10      30.07R
GRINNELL*      PTSUNNY   43  32  65 E14       30.10R
KNOXVILLE *    PTSUNNY   48  32  53 E8        30.08R
MARSHALLTOWN   CLOUDY    46  31  55 SE17      30.09R
NEWTON *       PTSUNNY   45  32  61 SE15G22   30.10R
PELLA *        MOSUNNY   46  33  62 SE13G21   30.11R
PERRY *        CLOUDY    50  30  46 SE12      30.04S
$$

IAZ004>006-015-016-023>025-035-036-231400-
   NORTH CENTRAL IOWA

CITY           SKY/WX    TMP DP  RH WIND       PRES   REMARKS
ALGONA *       CLOUDY    46  30  53 SE17G24   30.04S
CLARION *      CLOUDY    46  30  53 SE20G26   30.06S
ESTHERVILLE    CLOUDY    46  32  58 SE17      30.02S
FORT DODGE *   CLOUDY    48  28  46 SE13G24   30.05S
MASON CITY     CLOUDY    43  32  65 SE14      30.10R
FOREST CITY *  CLOUDY    43  32  65 SE12      30.07R
IOWA FALLS *   CLOUDY    45  31  57 SE16G22   30.09R
$$

IAZ007>011-017>019-026>030-037>042-050>054-066-231400-
   NORTHEAST IOWA

CITY           SKY/WX    TMP DP  RH WIND       PRES   REMARKS
CEDAR RAPIDS   PTSUNNY   42  30  62 SE17      30.12R
CHARLES CITY * CLOUDY    43  30  61 SE13      30.14R
CLINTON *      MOSUNNY   39  28  65 SE12      30.21R WCI  32
DECORAH *      PTSUNNY   41  28  60 SE12G17   30.13R
DUBUQUE        PTSUNNY   39  30  70 SE12      30.15F WCI  32
MONTICELLO *   CLOUDY    41  30  65 E12       30.14F
OELWEIN *      PTSUNNY  N/A N/A N/A SE15      30.14R
WATERLOO       CLOUDY    44  30  57 SE16      30.12R
$$

IAZ064-065-067-068-078-231400-
   EAST CENTRAL IOWA

CITY           SKY/WX    TMP DP  RH WIND       PRES   REMARKS
DAVENPORT      MOSUNNY   41  29  62 E16       30.15F
IOWA CITY      MOSUNNY   42  32  67 SE12      30.16R
MT. PLEASANT * PTSUNNY   44  29  57 E18       30.13S
MUSCATINE *    MOSUNNY   43  30  61 SE12      30.16R
QUAD CITIES    MOSUNNY   41  31  67 E9        30.16S
$$

IAZ062-063-075>077-085>089-095>099-231400-
   SOUTHEAST IOWA

CITY           SKY/WX    TMP DP  RH WIND       PRES   REMARKS
BURLINGTON     CLOUDY    42  30  62 SE8       30.15R
FAIRFIELD *    PTSUNNY   45  32  61 SE16G22   30.12R
FORT MADISON * MOSUNNY   45  32  61 SE14G23   30.15S
KEOKUK *       PTSUNNY   45  32  61 E14       30.13F
OSKALOOSA *    CLOUDY    44  34  69 SE17      30.11R
CENTERVILLE *    N/A     48  32  53 E12       30.09R
OTTUMWA        CLOUDY    44  33  65 SE16      30.11R
WASHINGTON *   MOSUNNY   45  30  57 SE16G22   30.14R
$$

ABBREVIATIONS USED IN REMARKS
   TC - TEMPERATURES IN CELSIUS
  WCI - WIND CHILL INDEX
   HX - HEAT INDEX
  VSB - VISIBILITY
$$




USA.gov is the U.S. government's official web portal to all federal, state and local government web resources and services.